| time (UTC) | temp C | wind direction | speed KPH | gust KPH | rain 1hr cm | rain 24hr cm | rain mn cm | humidity % | barometer mb |
| 20260504081403 | 7 | 180 | 3.2 | 4.8 | 0.00 | 0.00 | 0.00 | 93 | 1003.4 |
| 20260504080903 | 6 | 164 | 3.2 | 6.4 | 0.00 | 0.00 | 0.00 | 93 | 1003.4 |
| 20260504080403 | 6 | 179 | 3.2 | 6.4 | 0.00 | 0.00 | 0.00 | 93 | 1003.4 |
| 20260504050404 | 4 | 182 | 3.2 | 4.8 | 0.00 | 0.00 | 0.00 | 89 | 1004.9 |
| 20260504050124 | 4 | 188 | 1.6 | 6.4 | 0.00 | 0.00 | 0.00 | 89 | 1005.0 |
| 20260504045403 | 4 | 199 | 1.6 | 6.4 | 0.00 | 0.00 | 0.00 | 89 | 1005.0 |
| 20260504044903 | 4 | 203 | 3.2 | 6.4 | 0.00 | 0.00 | 0.00 | 88 | 1005.1 |
| 20260504044404 | 4 | 185 | 3.2 | 6.4 | 0.00 | 0.00 | 0.00 | 88 | 1005.1 |
| 20260504043904 | 4 | 164 | 3.2 | 6.4 | 0.00 | 0.00 | 0.00 | 87 | 1005.1 |
| 20260504043404 | 5 | 164 | 3.2 | 3.2 | 0.00 | 0.00 | 0.00 | 87 | 1005.2 |
| 20260504043128 | 5 | 164 | 0.0 | 0.0 | 0.00 | 0.00 | 0.00 | 86 | 1005.3 |
| 20260504042404 | 5 | 164 | 0.0 | 0.0 | 0.00 | 0.00 | 0.00 | 85 | 1005.3 |
| 20260504041903 | 5 | 164 | 0.0 | 0.0 | 0.00 | 0.00 | 0.00 | 84 | 1005.3 |
| 20260504041403 | 5 | 164 | 0.0 | 0.0 | 0.00 | 0.00 | 0.00 | 83 | 1005.2 |
| 20260504040903 | 5 | 164 | 0.0 | 0.0 | 0.00 | 0.00 | 0.00 | 83 | 1005.1 |
| 20260504040403 | 5 | 164 | 0.0 | 0.0 | 0.00 | 0.00 | 0.00 | 81 | 1005.2 |
| 20260504035903 | 5 | 164 | 0.0 | 1.6 | 0.00 | 0.00 | 0.00 | 81 | 1005.2 |
| 20260504035404 | 5 | 164 | 0.0 | 4.8 | 0.00 | 0.00 | 0.00 | 81 | 1005.0 |
| 20260504034903 | 5 | 164 | 1.6 | 4.8 | 0.00 | 0.00 | 0.00 | 80 | 1005.1 |
| 20260504034403 | 5 | 164 | 1.6 | 3.2 | 0.00 | 0.00 | 0.00 | 80 | 1005.2 |
| 20260504034123 | 5 | 164 | 0.0 | 3.2 | 0.00 | 0.00 | 0.00 | 80 | 1005.3 |
| 20260504033403 | 5 | 164 | 3.2 | 3.2 | 0.00 | 0.00 | 0.00 | 80 | 1005.3 |
| 20260504032903 | 5 | 164 | 0.0 | 0.0 | 0.00 | 0.00 | 0.00 | 80 | 1005.4 |
| 20260504032621 | 5 | 164 | 0.0 | 0.0 | 0.00 | 0.00 | 0.00 | 79 | 1005.5 |
| 20260504031903 | 5 | 164 | 0.0 | 0.0 | 0.00 | 0.00 | 0.00 | 79 | 1005.5 |
| 20260504031403 | 5 | 164 | 0.0 | 0.0 | 0.00 | 0.00 | 0.00 | 78 | 1005.6 |
| 20260504030903 | 5 | 164 | 0.0 | 3.2 | 0.00 | 0.00 | 0.00 | 77 | 1005.7 |
| 20260504030403 | 5 | 164 | 0.0 | 3.2 | 0.00 | 0.00 | 0.00 | 77 | 1005.7 |
| 20260504025903 | 5 | 164 | 1.6 | 1.6 | 0.00 | 0.00 | 0.00 | 77 | 1005.8 |
| 20260504025403 | 5 | 164 | 0.0 | 1.6 | 0.00 | 0.00 | 0.00 | 77 | 1006.0 |
| 20260504024902 | 5 | 164 | 0.0 | 3.2 | 0.00 | 0.00 | 0.00 | 76 | 1006.1 |
| 20260504024623 | 5 | 164 | 0.0 | 3.2 | 0.00 | 0.00 | 0.00 | 76 | 1006.2 |
| 20260504023904 | 5 | 164 | 0.0 | 1.6 | 0.00 | 0.00 | 0.00 | 76 | 1006.4 |
| 20260504023404 | 5 | 164 | 0.0 | 1.6 | 0.00 | 0.00 | 0.00 | 76 | 1006.4 |
| 20260504022903 | 5 | 164 | 0.0 | 3.2 | 0.00 | 0.00 | 0.00 | 76 | 1006.5 |
| 20260504022403 | 5 | 164 | 3.2 | 3.2 | 0.00 | 0.00 | 0.00 | 76 | 1006.4 |
| 20260504022126 | 5 | 164 | 0.0 | 0.0 | 0.00 | 0.00 | 0.00 | 77 | 1006.3 |
| 20260504021404 | 5 | 164 | 0.0 | 0.0 | 0.00 | 0.00 | 0.00 | 76 | 1006.2 |
| 20260504020903 | 5 | 164 | 0.0 | 0.0 | 0.00 | 0.00 | 0.00 | 77 | 1006.3 |
| 20260504020403 | 5 | 164 | 0.0 | 1.6 | 0.00 | 0.00 | 0.00 | 76 | 1006.3 |
| 20260504015903 | 5 | 164 | 0.0 | 3.2 | 0.00 | 0.00 | 0.00 | 76 | 1006.4 |
| 20260504015403 | 5 | 164 | 0.0 | 3.2 | 0.00 | 0.00 | 0.00 | 76 | 1006.5 |
| 20260504014903 | 5 | 164 | 1.6 | 4.8 | 0.00 | 0.00 | 0.00 | 76 | 1006.5 |
| 20260504014404 | 5 | 164 | 1.6 | 4.8 | 0.00 | 0.00 | 0.00 | 76 | 1006.5 |
| 20260504013903 | 5 | 164 | 1.6 | 4.8 | 0.00 | 0.00 | 0.00 | 76 | 1006.6 |
| 20260504013403 | 5 | 164 | 3.2 | 4.8 | 0.00 | 0.00 | 0.00 | 76 | 1006.7 |
| 20260504012857 | 5 | 164 | 3.2 | 4.8 | 0.00 | 0.00 | 0.00 | 75 | 1006.6 |
| 20260504012350 | 5 | 164 | 3.2 | 4.8 | 0.00 | 0.00 | 0.00 | 75 | 1006.8 |
| 20260504011840 | 5 | 164 | 3.2 | 4.8 | 0.00 | 0.00 | 0.00 | 75 | 1006.8 |
| 20260504011337 | 5 | 164 | 1.6 | 4.8 | 0.00 | 0.00 | 0.00 | 75 | 1006.8 |
| 20260504011105 | 5 | 164 | 3.2 | 6.4 | 0.00 | 0.00 | 0.00 | 75 | 1006.9 |
| 20260504010331 | 5 | 164 | 3.2 | 6.4 | 0.00 | 0.00 | 0.00 | 75 | 1006.9 |
| 20260504005830 | 5 | 165 | 3.2 | 9.7 | 0.00 | 0.00 | 0.00 | 75 | 1007.0 |
| 20260504005330 | 6 | 165 | 3.2 | 9.7 | 0.00 | 0.00 | 0.00 | 74 | 1007.1 |
| 20260504004831 | 6 | 158 | 1.6 | 6.4 | 0.00 | 0.00 | 0.00 | 74 | 1007.2 |
| 20260504004331 | 6 | 158 | 3.2 | 6.4 | 0.00 | 0.00 | 0.00 | 74 | 1007.2 |
| 20260504003831 | 6 | 155 | 3.2 | 6.4 | 0.00 | 0.00 | 0.00 | 75 | 1007.3 |
| 20260504003330 | 6 | 155 | 4.8 | 6.4 | 0.00 | 0.00 | 0.00 | 75 | 1007.4 |
| 20260504002831 | 6 | 165 | 1.6 | 4.8 | 0.00 | 0.00 | 0.00 | 75 | 1007.3 |
| 20260504002330 | 6 | 165 | 1.6 | 4.8 | 0.00 | 0.00 | 0.00 | 75 | 1007.4 |
| 20260504001830 | 6 | 165 | 1.6 | 4.8 | 0.00 | 0.00 | 0.00 | 76 | 1007.5 |
| 20260504001331 | 6 | 165 | 1.6 | 3.2 | 0.00 | 0.00 | 0.00 | 76 | 1007.5 |
| 20260504001056 | 6 | 165 | 0.0 | 0.0 | 0.00 | 0.00 | 0.00 | 76 | 1007.5 |
| 20260504000332 | 6 | 165 | 0.0 | 1.6 | 0.00 | 0.00 | 0.00 | 77 | 1007.6 |
| 20260503235831 | 6 | 165 | 0.0 | 4.8 | 0.00 | 0.00 | 0.00 | 77 | 1007.6 |
| 20260503235331 | 6 | 165 | 3.2 | 4.8 | 0.00 | 0.00 | 0.00 | 76 | 1007.6 |
| 20260503235048 | 6 | 165 | 1.6 | 3.2 | 0.00 | 0.00 | 0.00 | 76 | 1007.7 |
| 20260503234331 | 6 | 165 | 0.0 | 3.2 | 0.00 | 0.00 | 0.00 | 76 | 1007.8 |
| 20260503233831 | 6 | 165 | 1.6 | 3.2 | 0.00 | 0.00 | 0.00 | 76 | 1007.9 |
| 20260503233330 | 6 | 166 | 0.0 | 3.2 | 0.00 | 0.00 | 0.00 | 77 | 1007.9 |
| 20260503232830 | 6 | 166 | 1.6 | 4.8 | 0.00 | 0.00 | 0.00 | 76 | 1008.0 |
| 20260503232324 | 6 | 166 | 3.2 | 4.8 | 0.00 | 0.00 | 0.00 | 77 | 1008.0 |
| 20260503231817 | 6 | 162 | 3.2 | 4.8 | 0.00 | 0.00 | 0.00 | 77 | 1008.0 |
| 20260503231537 | 6 | 162 | 0.0 | 3.2 | 0.00 | 0.00 | 0.00 | 77 | 1008.0 |
| 20260503230814 | 6 | 162 | 1.6 | 6.4 | 0.00 | 0.00 | 0.00 | 77 | 1008.2 |
| 20260503230310 | 6 | 161 | 1.6 | 6.4 | 0.00 | 0.00 | 0.00 | 76 | 1008.2 |
| 20260503225809 | 6 | 178 | 0.0 | 3.2 | 0.00 | 0.00 | 0.00 | 77 | 1008.1 |
| 20260503225308 | 6 | 179 | 1.6 | 4.8 | 0.00 | 0.00 | 0.00 | 77 | 1008.2 |
| 20260503225028 | 6 | 179 | 1.6 | 4.8 | 0.00 | 0.00 | 0.00 | 77 | 1008.2 |
| 20260503224308 | 6 | 179 | 3.2 | 4.8 | 0.00 | 0.00 | 0.00 | 77 | 1008.3 |
| 20260503224026 | 6 | 179 | 1.6 | 4.8 | 0.00 | 0.00 | 0.00 | 77 | 1008.3 |
| 20260503223308 | 6 | 171 | 3.2 | 4.8 | 0.00 | 0.00 | 0.00 | 78 | 1008.3 |
| 20260503222808 | 6 | 171 | 3.2 | 4.8 | 0.00 | 0.00 | 0.00 | 78 | 1008.3 |
| 20260503222308 | 6 | 171 | 3.2 | 6.4 | 0.00 | 0.00 | 0.00 | 79 | 1008.4 |
| 20260503221808 | 6 | 169 | 3.2 | 6.4 | 0.00 | 0.00 | 0.00 | 79 | 1008.4 |
| 20260503221308 | 6 | 154 | 3.2 | 4.8 | 0.00 | 0.00 | 0.00 | 80 | 1008.5 |
| 20260503220808 | 6 | 155 | 1.6 | 8.0 | 0.00 | 0.00 | 0.00 | 80 | 1008.4 |
| 20260503220308 | 6 | 151 | 4.8 | 8.0 | 0.00 | 0.00 | 0.00 | 80 | 1008.5 |
| 20260503215807 | 6 | 128 | 4.8 | 8.0 | 0.00 | 0.00 | 0.00 | 80 | 1008.4 |
| 20260503215307 | 6 | 162 | 3.2 | 6.4 | 0.00 | 0.00 | 0.00 | 80 | 1008.5 |
| 20260503214807 | 6 | 162 | 4.8 | 6.4 | 0.00 | 0.00 | 0.00 | 80 | 1008.7 |
| 20260503214748 | 6 | 147 | 4.8 | 6.4 | 0.00 | 0.00 | 0.00 | 80 | 1008.6 |
| 20260503213807 | 6 | 141 | 3.2 | 6.4 | 0.00 | 0.00 | 0.00 | 80 | 1008.7 |
| 20260503213307 | 6 | 141 | 0.0 | 6.4 | 0.00 | 0.00 | 0.00 | 80 | 1008.7 |
| 20260503212807 | 6 | 140 | 1.6 | 8.0 | 0.00 | 0.00 | 0.00 | 80 | 1008.8 |
| 20260503212306 | 6 | 140 | 3.2 | 8.0 | 0.00 | 0.00 | 0.00 | 80 | 1008.8 |
| 20260503211806 | 6 | 164 | 3.2 | 6.4 | 0.00 | 0.00 | 0.00 | 80 | 1008.8 |
| 20260503211306 | 6 | 169 | 3.2 | 6.4 | 0.00 | 0.00 | 0.00 | 80 | 1008.9 |
| 20260503210807 | 6 | 176 | 3.2 | 6.4 | 0.00 | 0.00 | 0.00 | 80 | 1008.9 |
| 20260503210306 | 6 | 180 | 3.2 | 6.4 | 0.00 | 0.00 | 0.00 | 80 | 1008.9 |
| 20260503205806 | 6 | 157 | 4.8 | 6.4 | 0.00 | 0.00 | 0.00 | 80 | 1008.9 |
| 20260503205533 | 6 | 152 | 0.0 | 4.8 | 0.00 | 0.00 | 0.00 | 79 | 1008.9 |
| 20260503204806 | 6 | 152 | 0.0 | 8.0 | 0.00 | 0.00 | 0.00 | 79 | 1008.9 |
| 20260503204306 | 6 | 152 | 3.2 | 8.0 | 0.00 | 0.00 | 0.00 | 79 | 1008.9 |
| 20260503203806 | 6 | 151 | 3.2 | 8.0 | 0.00 | 0.00 | 0.00 | 80 | 1008.9 |
| 20260503203306 | 6 | 175 | 4.8 | 6.4 | 0.00 | 0.00 | 0.00 | 80 | 1008.9 |
| 20260503203034 | 6 | 176 | 3.2 | 6.4 | 0.00 | 0.00 | 0.00 | 80 | 1008.8 |
| 20260503202305 | 6 | 176 | 3.2 | 6.4 | 0.00 | 0.00 | 0.00 | 81 | 1008.8 |
| 20260503201806 | 6 | 155 | 1.6 | 6.4 | 0.00 | 0.00 | 0.00 | 81 | 1009.0 |
| 20260503201303 | 6 | 151 | 4.8 | 6.4 | 0.00 | 0.00 | 0.00 | 81 | 1008.9 |
| 20260503200803 | 6 | 148 | 4.8 | 6.4 | 0.00 | 0.00 | 0.00 | 80 | 1009.0 |
| 20260503200303 | 6 | 127 | 3.2 | 6.4 | 0.00 | 0.00 | 0.00 | 81 | 1009.0 |
| 20260503200054 | 6 | 127 | 3.2 | 6.4 | 0.00 | 0.00 | 0.00 | 81 | 1009.0 |
| 20260503195304 | 6 | 127 | 4.8 | 6.4 | 0.00 | 0.00 | 0.00 | 81 | 1009.0 |
| 20260503194803 | 6 | 127 | 3.2 | 4.8 | 0.00 | 0.00 | 0.00 | 81 | 1009.0 |
| 20260503194303 | 6 | 140 | 3.2 | 4.8 | 0.00 | 0.00 | 0.00 | 80 | 1009.0 |
| 20260503193805 | 6 | 140 | 3.2 | 4.8 | 0.00 | 0.00 | 0.00 | 81 | 1009.1 |
| 20260503193303 | 6 | 140 | 1.6 | 6.4 | 0.00 | 0.00 | 0.00 | 81 | 1009.1 |
| 20260503193020 | 6 | 141 | 3.2 | 6.4 | 0.00 | 0.00 | 0.00 | 81 | 1009.1 |
| 20260503192302 | 6 | 138 | 4.8 | 6.4 | 0.00 | 0.00 | 0.00 | 81 | 1009.1 |
| 20260503191803 | 6 | 97 | 3.2 | 6.4 | 0.00 | 0.00 | 0.00 | 82 | 1009.1 |
| 20260503191305 | 6 | 93 | 3.2 | 6.4 | 0.00 | 0.00 | 0.00 | 82 | 1009.1 |
| 20260503190805 | 6 | 93 | 4.8 | 4.8 | 0.00 | 0.00 | 0.00 | 82 | 1009.1 |
| 20260503190521 | 6 | 89 | 3.2 | 6.4 | 0.00 | 0.00 | 0.00 | 82 | 1009.2 |
| 20260503190029 | 6 | 87 | 4.8 | 6.4 | 0.00 | 0.00 | 0.00 | 82 | 1009.2 |
| 20260503185306 | 6 | 116 | 3.2 | 4.8 | 0.00 | 0.00 | 0.00 | 82 | 1009.2 |
| 20260503184806 | 6 | 116 | 3.2 | 4.8 | 0.00 | 0.00 | 0.00 | 82 | 1009.2 |
| 20260503184304 | 7 | 116 | 3.2 | 4.8 | 0.00 | 0.00 | 0.00 | 82 | 1009.2 |
| 20260503183805 | 7 | 116 | 3.2 | 4.8 | 0.00 | 0.00 | 0.00 | 82 | 1009.3 |
| 20260503183750 | 7 | 116 | 3.2 | 6.4 | 0.00 | 0.00 | 0.00 | 82 | 1009.2 |
| 20260503182805 | 7 | 111 | 4.8 | 6.4 | 0.00 | 0.00 | 0.00 | 82 | 1009.2 |
| 20260503182305 | 7 | 90 | 6.4 | 8.0 | 0.00 | 0.00 | 0.00 | 82 | 1009.1 |
| 20260503182027 | 7 | 47 | 4.8 | 8.0 | 0.00 | 0.00 | 0.00 | 82 | 1009.1 |
| 20260503181524 | 7 | 130 | 3.2 | 6.4 | 0.00 | 0.00 | 0.00 | 82 | 1009.1 |
| 20260503181251 | 7 | 89 | 3.2 | 8.0 | 0.00 | 0.00 | 0.00 | 82 | 1009.1 |
| 20260503180527 | 7 | 79 | 6.4 | 8.0 | 0.00 | 0.00 | 0.00 | 82 | 1009.1 |
| 20260503180028 | 7 | 107 | 4.8 | 6.4 | 0.00 | 0.00 | 0.00 | 82 | 1009.1 |
| 20260503175305 | 7 | 140 | 3.2 | 8.0 | 0.00 | 0.00 | 0.00 | 82 | 1009.2 |
| 20260503174805 | 7 | 141 | 3.2 | 8.0 | 0.00 | 0.00 | 0.00 | 81 | 1009.1 |
| 20260503174305 | 7 | 96 | 4.8 | 8.0 | 0.00 | 0.00 | 0.00 | 81 | 1009.1 |
| 20260503173805 | 7 | 102 | 3.2 | 6.4 | 0.00 | 0.00 | 0.00 | 81 | 1009.1 |
| 20260503173523 | 7 | 138 | 3.2 | 6.4 | 0.00 | 0.00 | 0.00 | 81 | 1009.2 |
| 20260503173045 | 7 | 138 | 4.8 | 6.4 | 0.00 | 0.00 | 0.00 | 81 | 1009.2 |
| 20260503172528 | 7 | 111 | 4.8 | 6.4 | 0.00 | 0.00 | 0.00 | 81 | 1009.2 |
| 20260503171804 | 7 | 66 | 4.8 | 8.0 | 0.00 | 0.00 | 0.00 | 81 | 1009.2 |
| 20260503171304 | 7 | 92 | 3.2 | 8.0 | 0.00 | 0.00 | 0.00 | 81 | 1009.2 |
| 20260503171024 | 7 | 100 | 6.4 | 9.7 | 0.00 | 0.00 | 0.00 | 81 | 1009.3 |
| 20260503170304 | 7 | 90 | 6.4 | 9.7 | 0.00 | 0.00 | 0.00 | 80 | 1009.3 |
| 20260503150805 | 7 | 103 | 8.0 | 11.3 | 0.00 | 0.00 | 0.00 | 76 | 1009.4 |
| 20260503150304 | 7 | 80 | 6.4 | 11.3 | 0.00 | 0.00 | 0.00 | 76 | 1009.6 |
| 20260503140304 | 7 | 49 | 6.4 | 11.3 | 0.00 | 0.00 | 0.00 | 75 | 1010.2 |
| 20260503131304 | 7 | 39 | 9.7 | 14.5 | 0.00 | 0.00 | 0.00 | 75 | 1010.3 |
| 20260503130804 | 7 | 83 | 9.7 | 14.5 | 0.00 | 0.00 | 0.00 | 75 | 1010.2 |
| 20260503130305 | 7 | 65 | 8.0 | 16.1 | 0.00 | 0.00 | 0.00 | 75 | 1010.2 |
| 20260503110803 | 8 | 51 | 6.4 | 17.7 | 0.00 | 0.00 | 0.00 | 71 | 1010.5 |
| 20260503110304 | 8 | 51 | 14.5 | 17.7 | 0.00 | 0.00 | 0.00 | 71 | 1010.4 |